| time (UTC) | temp C | wind direction | speed KPH | gust KPH | rain 1hr cm | rain 24hr cm | rain mn cm | humidity % | barometer mb |
| 20260504041542 | 20 | 184 | 0.0 | 11.3 | 0.00 | 0.00 | 0.00 | 53 | 1008.8 |
| 20260504040041 | 20 | 242 | 0.0 | 4.8 | 0.00 | 0.00 | 0.00 | 52 | 1008.7 |
| 20260504034540 | 20 | 168 | 0.0 | 3.2 | 0.00 | 0.00 | 0.00 | 52 | 1009.5 |
| 20260504033140 | 20 | 231 | 0.0 | 4.8 | 0.00 | 0.00 | 0.00 | 52 | 1009.5 |
| 20260504031552 | 20 | 261 | 0.0 | 4.8 | 0.00 | 0.00 | 0.00 | 51 | 1009.6 |
| 20260504030042 | 20 | 207 | 0.0 | 3.2 | 0.00 | 0.00 | 0.00 | 51 | 1009.4 |
| 20260504024539 | 20 | 212 | 0.0 | 0.0 | 0.00 | 0.00 | 0.00 | 50 | 1009.2 |
| 20260504023039 | 20 | 207 | 0.0 | 3.2 | 0.00 | 0.00 | 0.00 | 50 | 1009.2 |
| 20260504021538 | 20 | 207 | 0.0 | 0.0 | 0.00 | 0.00 | 0.00 | 50 | 1009.2 |
| 20260504020038 | 21 | 207 | 0.0 | 0.0 | 0.00 | 0.00 | 0.00 | 49 | 1009.0 |
| 20260504014541 | 21 | 207 | 0.0 | 0.0 | 0.00 | 0.00 | 0.00 | 47 | 1008.9 |
| 20260504013041 | 21 | 213 | 0.0 | 0.0 | 0.00 | 0.00 | 0.00 | 46 | 1008.8 |
| 20260504011540 | 22 | 216 | 0.0 | 0.0 | 0.00 | 0.00 | 0.00 | 45 | 1008.7 |
| 20260504010036 | 22 | 220 | 0.0 | 0.0 | 0.00 | 0.00 | 0.00 | 44 | 1008.8 |
| 20260504004536 | 22 | 220 | 0.0 | 4.8 | 0.00 | 0.00 | 0.00 | 43 | 1008.7 |
| 20260504003033 | 23 | 190 | 0.0 | 0.0 | 0.00 | 0.00 | 0.00 | 41 | 1008.8 |
| 20260504001537 | 23 | 205 | 0.0 | 1.6 | 0.00 | 0.00 | 0.00 | 40 | 1008.7 |
| 20260504000032 | 24 | 200 | 0.0 | 8.0 | 0.00 | 0.00 | 0.00 | 38 | 1008.8 |
| 20260503234546 | 24 | 237 | 0.0 | 11.3 | 0.00 | 0.00 | 0.00 | 37 | 1008.9 |
| 20260503233037 | 25 | 218 | 0.0 | 20.9 | 0.00 | 0.00 | 0.00 | 36 | 1009.0 |
| 20260503231533 | 25 | 159 | 0.0 | 1.6 | 0.00 | 0.00 | 0.00 | 35 | 1009.1 |
| 20260503230031 | 25 | 225 | 0.0 | 22.5 | 0.00 | 0.00 | 0.00 | 34 | 1009.2 |
| 20260503224524 | 25 | 286 | 0.0 | 9.7 | 0.00 | 0.00 | 0.00 | 34 | 1009.4 |
| 20260503223022 | 25 | 220 | 0.0 | 6.4 | 0.00 | 0.00 | 0.00 | 32 | 1009.4 |
| 20260503221527 | 25 | 196 | 0.0 | 14.5 | 0.00 | 0.00 | 0.00 | 32 | 1009.7 |
| 20260503220018 | 25 | 208 | 0.0 | 14.5 | 0.00 | 0.00 | 0.00 | 32 | 1009.7 |
| 20260503214515 | 25 | 186 | 0.0 | 27.4 | 0.00 | 0.00 | 0.00 | 32 | 1009.8 |
| 20260503213013 | 25 | 154 | 0.0 | 19.3 | 0.00 | 0.00 | 0.00 | 32 | 1009.8 |
| 20260503211510 | 25 | 173 | 1.6 | 11.3 | 0.00 | 0.00 | 0.00 | 33 | 1009.9 |
| 20260503210008 | 24 | 208 | 0.0 | 16.1 | 0.00 | 0.00 | 0.00 | 33 | 1010.1 |
| 20260503204505 | 23 | 149 | 0.0 | 11.3 | 0.00 | 0.00 | 0.00 | 34 | 1010.5 |
| 20260503203003 | 23 | 203 | 0.0 | 14.5 | 0.00 | 0.00 | 0.00 | 35 | 1010.7 |
| 20260503201559 | 23 | 213 | 0.0 | 12.9 | 0.00 | 0.00 | 0.00 | 36 | 1011.1 |
| 20260503200057 | 23 | 196 | 1.6 | 16.1 | 0.00 | 0.00 | 0.00 | 35 | 1011.7 |
| 20260503194559 | 22 | 199 | 1.6 | 22.5 | 0.00 | 0.00 | 0.00 | 38 | 1012.0 |
| 20260503193049 | 22 | 195 | 0.0 | 11.3 | 0.00 | 0.00 | 0.00 | 38 | 1012.3 |
| 20260503191547 | 22 | 202 | 1.6 | 20.9 | 0.00 | 0.00 | 0.00 | 37 | 1012.8 |
| 20260503190041 | 21 | 170 | 0.0 | 25.7 | 0.00 | 0.00 | 0.00 | 38 | 1013.3 |
| 20260503184538 | 21 | 156 | 0.0 | 16.1 | 0.00 | 0.00 | 0.00 | 39 | 1013.6 |
| 20260503183034 | 21 | 203 | 0.0 | 12.9 | 0.00 | 0.00 | 0.00 | 38 | 1014.0 |
| 20260503181531 | 20 | 55 | 0.0 | 16.1 | 0.00 | 0.00 | 0.00 | 39 | 1014.3 |
| 20260503180028 | 20 | 252 | 0.0 | 14.5 | 0.00 | 0.00 | 0.00 | 40 | 1014.9 |
| 20260503174523 | 19 | 151 | 0.0 | 8.0 | 0.00 | 0.00 | 0.00 | 41 | 1015.4 |
| 20260503173017 | 18 | 286 | 0.0 | 12.9 | 0.00 | 0.00 | 0.00 | 45 | 1016.2 |
| 20260503171515 | 18 | 211 | 1.6 | 9.7 | 0.00 | 0.00 | 0.00 | 43 | 1016.6 |
| 20260503110111 | 6 | 310 | 0.0 | 4.8 | 0.00 | 0.00 | 0.00 | 79 | 1018.3 |
| 20260503081546 | 6 | 310 | 0.0 | 0.0 | 0.00 | 0.00 | 0.00 | 84 | 1018.9 |
| 20260503071556 | 6 | 310 | 0.0 | 0.0 | 0.00 | 0.00 | 0.00 | 85 | 1019.1 |
| 20260503054534 | 7 | 310 | 0.0 | 0.0 | 0.00 | 0.00 | 0.00 | 81 | 1019.7 |
| 20260503053025 | 7 | 310 | 0.0 | 0.0 | 0.00 | 0.00 | 0.00 | 80 | 1019.8 |
| 20260503051521 | 7 | 310 | 0.0 | 0.0 | 0.00 | 0.00 | 0.00 | 78 | 1019.8 |
| 20260503050033 | 7 | 310 | 0.0 | 0.0 | 0.00 | 0.00 | 0.00 | 76 | 1019.7 |
| 20260503044520 | 8 | 310 | 0.0 | 1.6 | 0.00 | 0.00 | 0.00 | 75 | 1019.7 |
| 20260503043018 | 8 | 310 | 0.0 | 0.0 | 0.00 | 0.00 | 0.00 | 73 | 1019.6 |